Location: Marion Hill
(40.7303°N, 80.2959°W)
Time: 08:29:11
(UTC+00:00)

SL-08 R/B - Pass Details

Date: 29 October 2020
Orbit: 946 x 994 km, 83.0° (Epoch: 28 November)

Event Time Altitude Azimuth Distance (km) Brightness Sun altitude
Rises 23:15:53 0° 355° (N) 3,652 7.5 -11.0°
Reaches altitude 10° 23:18:26 10° 358° (N) 2,695 6.8 -11.5°
Maximum altitude 23:24:33 66° 81° (E) 1,036 4.4 -12.7°
Drops below altitude 10° 23:30:35 10° 163° (SSE) 2,659 6.7 -13.8°
Sets 23:33:04 0° 166° (SSE) 3,598 7.4 -14.3°
